,,Stat6,,Stat2,,Stat8,,Stat9,,Stat10,,Wind1,,Wind1,
time,status,PA1M_AVG,status,PR1M_SUM,status,RH1M_AVG,status,SR1M_AVG,status,TA1M_AVG,status,W1dAve1m,status,W1sAve1m,
2008-03-13, 00:00:00,VALID,916.92,VALID,0,VALID,100,VALID,-0.0169808,VALID,19.2883,VALID,132,VALID,0.775036,
2008-03-13, 00:01:00,VALID,916.921,VALID,0,VALID,100,VALID,-0.0339617,VALID,19.2923,VALID,139,VALID,0.87207,
2008-03-13, 00:02:00,VALID,916.915,VALID,0,VALID,100,VALID,-0.0169808,VALID,19.2753,VALID,126,VALID,0.626953,
2008-03-13, 00:03:00,VALID,916.905,VALID,0,VALID,100,VALID,-0.0169808,VALID,19.2886,VALID,127,VALID,0.112537,
2008-03-13, 00:04:00,VALID,916.896,VALID,0,VALID,100,VALID,-0.0169808,VALID,19.2793,VALID,127,VALID,0.169457,
2008-03-13, 00:05:00,VALID,916.868,VALID,0,VALID,100,VALID,-0.0169808,VALID,19.2793,VALID,143,VALID,1.1276,
2008-03-13, 00:06:00,VALID,916.858,VALID,0,VALID,100,VALID,0,VALID,19.2886,VALID,164,VALID,0.667333,
2008-03-13, 00:07:00,VALID,916.852,VALID,0,VALID,100,VALID,0,VALID,19.2856,VALID,176,VALID,0.329942,
2008-03-13, 00:08:00,VALID,916.837,VALID,0,VALID,100,VALID,-0.0169808,VALID,19.3053,VALID,160,VALID,0.991235,
2008-03-13, 00:09:00,VALID,916.818,VALID,0,VALID,100,VALID,-0.0169808,VALID,19.2856,VALID,165,VALID,1.06822,
2008-03-13, 00:10:00,VALID,916.807,VALID,0,VALID,100,VALID,-0.0169808,VALID,19.3088,VALID,157,VALID,0.911701,
2008-03-13, 00:11:00,VALID,916.801,VALID,0,VALID,100,VALID,-0.0339617,VALID,19.3118,VALID,153,VALID,0.728516,
2008-03-13, 00:12:00,VALID,916.775,VALID,0,VALID,100,VALID,-0.0509425,VALID,19.3083,VALID,156,VALID,0.917081,
2008-03-13, 00:13:00,VALID,916.762,VALID,0,VALID,100,VALID,0,VALID,19.308,VALID,150,VALID,0.900073,
2008-03-13, 00:14:00,VALID,916.731,VALID,0,VALID,100,VALID,0,VALID,19.2973,VALID,135,VALID,1.0625,
2008-03-13, 00:15:00,VALID,916.724,VALID,0,VALID,100,VALID,0,VALID,19.3175,VALID,148,VALID,1.0426,
2008-03-13, 00:16:00,VALID,916.713,VALID,0,VALID,100,VALID,0,VALID,19.3437,VALID,138,VALID,1.28646,
2008-03-13, 00:17:00,VALID,916.692,VALID,0,VALID,100,VALID,-0.0679233,VALID,19.3602,VALID,135,VALID,1.13707,
2008-03-13, 00:18:00,VALID,916.677,VALID,0,VALID,100,VALID,0,VALID,19.3731,VALID,142,VALID,0.901228,
2008-03-13, 00:19:00,VALID,916.679,VALID,0,VALID,100,VALID,-0.0169808,VALID,19.4023,VALID,124,VALID,0.932776,
2008-03-13, 00:20:00,VALID,916.686,VALID,0,VALID,100,VALID,0,VALID,19.4188,VALID,106,VALID,0.732171,
2008-03-13, 00:21:00,VALID,916.703,VALID,0,VALID,100,VALID,-0.0169808,VALID,19.4253,VALID,132,VALID,0.829613,
2008-03-13, 00:22:00,VALID,916.715,VALID,0,VALID,100,VALID,-0.0169808,VALID,19.441,VALID,115,VALID,0.881882,
2008-03-13, 00:23:00,VALID,916.726,VALID,0,VALID,99.998,VALID,0,VALID,19.4448,VALID,119,VALID,0.77763,
2008-03-13, 00:24:00,VALID,916.725,VALID,0,VALID,99.9316,VALID,-0.0169808,VALID,19.4345,VALID,121,VALID,1.14236,
2008-03-13, 00:25:00,VALID,916.711,VALID,0,VALID,99.8451,VALID,0,VALID,19.4607,VALID,119,VALID,0.753906,
2008-03-13, 00:26:00,VALID,916.708,VALID,0,VALID,99.7828,VALID,0.0169808,VALID,19.454,VALID,148,VALID,0.634201,
2008-03-13, 00:27:00,VALID,916.686,VALID,0,VALID,99.7625,VALID,0,VALID,19.4503,VALID,152,VALID,0.795072,
2008-03-13, 00:28:00,VALID,916.669,VALID,0,VALID,99.779,VALID,-0.0169808,VALID,19.4478,VALID,160,VALID,0.0197917,
2008-03-13, 00:29:00,VALID,916.667,VALID,0,VALID,99.8019,VALID,0,VALID,19.4345,VALID,144,VALID,0,
2008-03-13, 00:30:00,VALID,916.668,VALID,0,VALID,99.8718,VALID,0,VALID,19.4183,VALID,142,VALID,0,
2008-03-13, 00:31:00,VALID,916.667,VALID,0,VALID,99.8934,VALID,0,VALID,19.4088,VALID,153,VALID,0.528161,
2008-03-13, 00:32:00,VALID,916.648,VALID,0,VALID,99.9456,VALID,0,VALID,19.3993,VALID,153,VALID,0.562686,
2008-03-13, 00:33:00,VALID,916.662,VALID,0,VALID,99.9697,VALID,0,VALID,19.3829,VALID,153,VALID,0.501334,
2008-03-13, 00:34:00,VALID,916.648,VALID,0,VALID,99.9835,VALID,0,VALID,19.3731,VALID,136,VALID,0.641513,
2008-03-13, 00:35:00,VALID,916.655,VALID,0,VALID,99.9354,VALID,0,VALID,19.3766,VALID,140,VALID,0.903846,
2008-03-13, 00:36:00,VALID,916.641,VALID,0,VALID,99.8095,VALID,0,VALID,19.3764,VALID,149,VALID,0.922763,
2008-03-13, 00:37:00,VALID,916.648,VALID,0,VALID,99.7129,VALID,-0.0169808,VALID,19.3829,VALID,154,VALID,0.193788,
2008-03-13, 00:38:00,VALID,916.631,VALID,0,VALID,99.6264,VALID,0.0169808,VALID,19.4023,VALID,152,VALID,0.803234,
2008-03-13, 00:39:00,VALID,916.618,VALID,0,VALID,99.4598,VALID,-0.0339617,VALID,19.4058,VALID,162,VALID,1.1774,
2008-03-13, 00:40:00,VALID,916.599,VALID,0,VALID,99.3339,VALID,0,VALID,19.4288,VALID,143,VALID,0.656613,
2008-03-13, 00:41:00,VALID,916.596,VALID,0,VALID,99.1025,VALID,0,VALID,19.4513,VALID,156,VALID,1.40352,
2008-03-13, 00:42:00,VALID,916.591,VALID,0,VALID,98.8978,VALID,-0.0169808,VALID,19.4735,VALID,130,VALID,1.43223,
2008-03-13, 00:43:00,VALID,916.569,VALID,0,VALID,98.7426,VALID,0,VALID,19.4867,VALID,142,VALID,1.21911,
2008-03-13, 00:44:00,VALID,916.562,VALID,0,VALID,98.6295,VALID,-0.0169808,VALID,19.5129,VALID,139,VALID,1.39658,
2008-03-13, 00:45:00,VALID,916.56,VALID,0,VALID,98.5074,VALID,0,VALID,19.5261,VALID,126,VALID,1.6622,
2008-03-13, 00:46:00,VALID,916.539,VALID,0,VALID,98.4247,VALID,-0.0169808,VALID,19.5194,VALID,131,VALID,1.57329,
2008-03-13, 00:47:00,VALID,916.515,VALID,0,VALID,98.3675,VALID,-0.0169808,VALID,19.5324,VALID,135,VALID,0.77798,
2008-03-13, 00:48:00,VALID,916.497,VALID,0,VALID,98.323,VALID,-0.0339617,VALID,19.5291,VALID,142,VALID,1.35538,
2008-03-13, 00:49:00,VALID,916.479,VALID,0,VALID,98.2849,VALID,0,VALID,19.5289,VALID,143,VALID,1.41406,
2008-03-13, 00:50:00,VALID,916.471,VALID,0,VALID,98.2048,VALID,0.0169808,VALID,19.5324,VALID,135,VALID,1.53888,
2008-03-13, 00:51:00,VALID,916.451,VALID,0,VALID,98.0293,VALID,-0.0169808,VALID,19.5586,VALID,133,VALID,1.44582,
2008-03-13, 00:52:00,VALID,916.437,VALID,0,VALID,97.8818,VALID,-0.0509425,VALID,19.5778,VALID,140,VALID,1.33929,
2008-03-13, 00:53:00,VALID,916.414,VALID,0,VALID,97.8334,VALID,-0.0169808,VALID,19.5775,VALID,137,VALID,1.08224,
2008-03-13, 00:54:00,VALID,916.404,VALID,0,VALID,97.8716,VALID,-0.0169808,VALID,19.568,VALID,145,VALID,1.4574,
2008-03-13, 00:55:00,VALID,916.378,VALID,0,VALID,97.9403,VALID,-0.0169808,VALID,19.5583,VALID,139,VALID,1.43586,
2008-03-13, 00:56:00,VALID,916.373,VALID,0,VALID,98.0178,VALID,-0.0509425,VALID,19.5486,VALID,146,VALID,1.1419,
2008-03-13, 00:57:00,VALID,916.369,VALID,0,VALID,98.0509,VALID,-0.0169808,VALID,19.5289,VALID,142,VALID,1.64634,
2008-03-13, 00:58:00,VALID,916.352,VALID,0,VALID,98.0572,VALID,-0.0169808,VALID,19.5291,VALID,140,VALID,1.66518,
2008-03-13, 00:59:00,VALID,916.36,VALID,0,VALID,98.0839,VALID,-0.0169808,VALID,19.5326,VALID,133,VALID,1.4295,
2008-03-13, 01:00:00,VALID,916.349,VALID,0,VALID,98.1068,VALID,-0.0169808,VALID,19.5161,VALID,141,VALID,1.06889,
2008-03-13, 01:01:00,VALID,916.336,VALID,0,VALID,98.103,VALID,-0.0509425,VALID,19.5032,VALID,147,VALID,1.16387,
2008-03-13, 01:02:00,VALID,916.328,VALID,0,VALID,98.0445,VALID,0,VALID,19.4999,VALID,133,VALID,1.55087,
2008-03-13, 01:03:00,VALID,916.3,VALID,0,VALID,97.9644,VALID,-0.0509425,VALID,19.5229,VALID,136,VALID,1.3956,
2008-03-13, 01:04:00,VALID,916.276,VALID,0,VALID,97.8716,VALID,-0.0169808,VALID,19.5324,VALID,133,VALID,1.50223,
2008-03-13, 01:05:00,VALID,916.281,VALID,0,VALID,97.8017,VALID,-0.0509425,VALID,19.5388,VALID,149,VALID,0.642078,
2008-03-13, 01:06:00,VALID,916.258,VALID,0,VALID,97.7546,VALID,-0.0169808,VALID,19.5491,VALID,147,VALID,0.686498,
2008-03-13, 01:07:00,VALID,916.24,VALID,0,VALID,97.7177,VALID,-0.0339617,VALID,19.5491,VALID,135,VALID,0.559261,
2008-03-13, 01:08:00,VALID,916.225,VALID,0,VALID,97.6859,VALID,-0.0509425,VALID,19.5324,VALID,139,VALID,1.01771,
2008-03-13, 01:09:00,VALID,916.231,VALID,0,VALID,97.6796,VALID,-0.0509425,VALID,19.5291,VALID,132,VALID,1.21715,
2008-03-13, 01:10:00,VALID,916.199,VALID,0,VALID,97.6783,VALID,-0.0339617,VALID,19.5324,VALID,142,VALID,1.49822,
2008-03-13, 01:11:00,VALID,916.189,VALID,0,VALID,97.5855,VALID,-0.0169808,VALID,19.5391,VALID,140,VALID,1.33315,
2008-03-13, 01:12:00,VALID,916.165,VALID,0,VALID,97.4621,VALID,-0.0509425,VALID,19.5648,VALID,109,VALID,1.15811,
2008-03-13, 01:13:00,VALID,916.132,VALID,0,VALID,97.3528,VALID,0.0679233,VALID,19.5633,VALID,121,VALID,0.656622,
2008-03-13, 01:14:00,VALID,916.098,VALID,0,VALID,97.3451,VALID,0.101885,VALID,19.5696,VALID,139,VALID,1.24055,
2008-03-13, 01:15:00,VALID,916.071,VALID,0,VALID,97.3769,VALID,0.0849042,VALID,19.5601,VALID,132,VALID,1.29592,
2008-03-13, 01:16:00,VALID,916.037,VALID,0,VALID,97.4367,VALID,0.101885,VALID,19.5601,VALID,140,VALID,0.59811,
2008-03-13, 01:17:00,VALID,916.016,VALID,0,VALID,97.5117,VALID,0.101885,VALID,19.5406,VALID,130,VALID,1.02653,
2008-03-13, 01:18:00,VALID,915.99,VALID,0,VALID,97.6033,VALID,0.101885,VALID,19.5211,VALID,133,VALID,1.63834,
2008-03-13, 01:19:00,VALID,915.973,VALID,0,VALID,97.705,VALID,0.101885,VALID,19.5112,VALID,139,VALID,1.12812,
2008-03-13, 01:20:00,VALID,915.956,VALID,0,VALID,97.8195,VALID,0.101885,VALID,19.4949,VALID,141,VALID,2.20926,
2008-03-13, 01:21:00,VALID,915.945,VALID,0,VALID,97.864,VALID,0.0849042,VALID,19.5049,VALID,128,VALID,1.5307,
2008-03-13, 01:22:00,VALID,915.935,VALID,0,VALID,97.9161,VALID,0.0849042,VALID,19.4987,VALID,130,VALID,1.35042,
2008-03-13, 01:23:00,VALID,915.898,VALID,0,VALID,98.028,VALID,0.0509425,VALID,19.476,VALID,127,VALID,1.89769,
2008-03-13, 01:24:00,VALID,915.865,VALID,0,VALID,98.1793,VALID,0.0679233,VALID,19.4598,VALID,119,VALID,1.35039,
2008-03-13, 01:25:00,VALID,915.834,VALID,0,VALID,98.3815,VALID,0.0849042,VALID,19.4171,VALID,109,VALID,1.53639,
2008-03-13, 01:26:00,VALID,915.801,VALID,0,VALID,98.5608,VALID,0.0679233,VALID,19.3851,VALID,90,VALID,0.970526,
2008-03-13, 01:27:00,VALID,915.787,VALID,0,VALID,98.7732,VALID,0.0849042,VALID,19.3492,VALID,100,VALID,1.36289,
2008-03-13, 01:28:00,VALID,915.744,VALID,0,VALID,98.9245,VALID,0.0169808,VALID,19.3312,VALID,91,VALID,0.999599,
2008-03-13, 01:29:00,VALID,915.714,VALID,0,VALID,99.0644,VALID,-0.0169808,VALID,19.2985,VALID,89,VALID,1.18984,
2008-03-13, 01:30:00,VALID,915.689,VALID,0,VALID,99.1508,VALID,-0.0339617,VALID,19.289,VALID,106,VALID,0.791667,
2008-03-13, 01:31:00,VALID,915.646,VALID,0,VALID,99.2297,VALID,-0.0169808,VALID,19.2761,VALID,128,VALID,1.1926,
2008-03-13, 01:32:00,VALID,915.633,VALID,0,VALID,99.2004,VALID,-0.0339617,VALID,19.2925,VALID,128,VALID,0.49359,
2008-03-13, 01:33:00,VALID,915.61,VALID,0,VALID,99.1559,VALID,-0.0339617,VALID,19.292,VALID,108,VALID,0.617001,
2008-03-13, 01:34:00,VALID,915.607,VALID,0,VALID,99.1318,VALID,0,VALID,19.3053,VALID,140,VALID,0.674293,
2008-03-13, 01:35:00,VALID,915.602,VALID,0,VALID,99.0771,VALID,-0.0509425,VALID,19.2923,VALID,165,VALID,0.884448,
2008-03-13, 01:36:00,VALID,915.592,VALID,0,VALID,99.1,VALID,-0.0679233,VALID,19.2826,VALID,172,VALID,0.3484,
2008-03-13, 01:37:00,VALID,915.593,VALID,0,VALID,99.1559,VALID,-0.0339617,VALID,19.283,VALID,175,VALID,0,
2008-03-13, 01:38:00,VALID,915.581,VALID,0,VALID,99.3263,VALID,-0.0339617,VALID,19.2631,VALID,173,VALID,0.61875,
2008-03-13, 01:39:00,VALID,915.563,VALID,0,VALID,99.531,VALID,0,VALID,19.2371,VALID,174,VALID,0.142383,
2008-03-13, 01:40:00,VALID,915.55,VALID,0,VALID,99.7561,VALID,-0.0339617,VALID,19.2209,VALID,169,VALID,0.865734,
2008-03-13, 01:41:00,VALID,915.536,VALID,0,VALID,99.9501,VALID,0,VALID,19.1818,VALID,172,VALID,0.815168,
2008-03-13, 01:42:00,VALID,915.542,VALID,0,VALID,100,VALID,-0.0339617,VALID,19.1528,VALID,168,VALID,0.452195,
2008-03-13, 01:43:00,VALID,915.538,VALID,0,VALID,100,VALID,-0.0339617,VALID,19.1236,VALID,175,VALID,0.984896,
2008-03-13, 01:44:00,VALID,915.533,VALID,0,VALID,100,VALID,-0.0339617,VALID,19.1042,VALID,162,VALID,0.743304,
2008-03-13, 01:45:00,VALID,915.543,VALID,0,VALID,100,VALID,-0.0339617,VALID,19.0842,VALID,135,VALID,0.667515,
2008-03-13, 01:46:00,VALID,915.52,VALID,0,VALID,100,VALID,-0.0169808,VALID,19.068,VALID,151,VALID,1.10229,
2008-03-13, 01:47:00,VALID,915.519,VALID,0,VALID,100,VALID,-0.0339617,VALID,19.0585,VALID,131,VALID,0.292067,
2008-03-13, 01:48:00,VALID,915.507,VALID,0,VALID,100,VALID,-0.0339617,VALID,19.0752,VALID,142,VALID,1.12622,
2008-03-13, 01:49:00,VALID,915.487,VALID,0,VALID,100,VALID,-0.0169808,VALID,19.0682,VALID,141,VALID,0.803125,
2008-03-13, 01:50:00,VALID,915.486,VALID,0,VALID,100,VALID,-0.0339617,VALID,19.0583,VALID,152,VALID,1.19277,
2008-03-13, 01:51:00,VALID,915.494,VALID,0,VALID,100,VALID,0,VALID,19.0652,VALID,171,VALID,0.765067,
2008-03-13, 01:52:00,VALID,915.481,VALID,0,VALID,100,VALID,-0.0339617,VALID,19.0587,VALID,155,VALID,0.962891,
2008-03-13, 01:53:00,VALID,915.491,VALID,0,VALID,100,VALID,-0.0509425,VALID,19.0555,VALID,148,VALID,1.02507,
2008-03-13, 01:54:00,VALID,915.488,VALID,0,VALID,100,VALID,-0.0339617,VALID,19.0652,VALID,148,VALID,1.1888,
2008-03-13, 01:55:00,VALID,915.478,VALID,0,VALID,100,VALID,-0.0169808,VALID,19.0784,VALID,133,VALID,1.22218,
2008-03-13, 01:56:00,VALID,915.479,VALID,0,VALID,100,VALID,-0.0339617,VALID,19.0844,VALID,132,VALID,0.644159,
2008-03-13, 01:57:00,VALID,915.476,VALID,0,VALID,100,VALID,-0.0169808,VALID,19.0977,VALID,133,VALID,0.994978,
2008-03-13, 01:58:00,VALID,915.449,VALID,0,VALID,100,VALID,0,VALID,19.1007,VALID,142,VALID,0.620458,
2008-03-13, 01:59:00,VALID,915.436,VALID,0,VALID,100,VALID,0,VALID,19.1136,VALID,157,VALID,1.21418,
2008-03-13, 02:00:00,VALID,915.418,VALID,0,VALID,100,VALID,-0.0339617,VALID,19.1269,VALID,166,VALID,0.667111,
2008-03-13, 02:01:00,VALID,915.398,VALID,0,VALID,100,VALID,0,VALID,19.1204,VALID,164,VALID,0.408026,
2008-03-13, 02:02:00,VALID,915.381,VALID,0,VALID,100,VALID,-0.0339617,VALID,19.1333,VALID,164,VALID,1.17578,
2008-03-13, 02:03:00,VALID,915.38,VALID,0,VALID,99.8858,VALID,-0.0339617,VALID,19.1336,VALID,157,VALID,0.681424,
2008-03-13, 02:04:00,VALID,915.364,VALID,0,VALID,99.779,VALID,0,VALID,19.1528,VALID,150,VALID,0.853087,
2008-03-13, 02:05:00,VALID,915.377,VALID,0,VALID,99.648,VALID,-0.0339617,VALID,19.1693,VALID,141,VALID,1.02284,
2008-03-13, 02:06:00,VALID,915.368,VALID,0,VALID,99.5679,VALID,-0.0509425,VALID,19.1725,VALID,152,VALID,1.23819,
2008-03-13, 02:07:00,VALID,915.365,VALID,0,VALID,99.5387,VALID,0,VALID,19.1753,VALID,161,VALID,1.25725,
2008-03-13, 02:08:00,VALID,915.363,VALID,0,VALID,99.5234,VALID,-0.0339617,VALID,19.1758,VALID,164,VALID,1.39583,
2008-03-13, 02:09:00,VALID,915.369,VALID,0,VALID,99.4789,VALID,-0.0169808,VALID,19.1852,VALID,150,VALID,1.71312,
2008-03-13, 02:10:00,VALID,915.371,VALID,0,VALID,99.2932,VALID,-0.0169808,VALID,19.1917,VALID,143,VALID,2.00765,
2008-03-13, 02:11:00,VALID,915.37,VALID,0,VALID,99.0516,VALID,0,VALID,19.2302,VALID,160,VALID,1.95022,
2008-03-13, 02:12:00,VALID,915.374,VALID,0,VALID,98.8418,VALID,0,VALID,19.2529,VALID,145,VALID,1.76799,
2008-03-13, 02:13:00,VALID,915.383,VALID,0,VALID,98.7325,VALID,0.0849042,VALID,19.2843,VALID,161,VALID,1.27489,
2008-03-13, 02:14:00,VALID,915.383,VALID,0,VALID,98.6193,VALID,0.0509425,VALID,19.2911,VALID,156,VALID,1.82552,
2008-03-13, 02:15:00,VALID,915.391,VALID,0,VALID,98.6002,VALID,0.0849042,VALID,19.2971,VALID,152,VALID,1.58575,
2008-03-13, 02:16:00,VALID,915.373,VALID,0,VALID,98.632,VALID,0.118866,VALID,19.2941,VALID,154,VALID,1.26448,
2008-03-13, 02:17:00,VALID,915.376,VALID,0,VALID,98.674,VALID,0.0679233,VALID,19.2811,VALID,156,VALID,1.16025,
2008-03-13, 02:18:00,VALID,915.372,VALID,0,VALID,98.7668,VALID,0.0339617,VALID,19.2619,VALID,142,VALID,0.672805,
2008-03-13, 02:19:00,VALID,915.36,VALID,0,VALID,98.838,VALID,0.0679233,VALID,19.2484,VALID,155,VALID,1.14803,
2008-03-13, 02:20:00,VALID,915.343,VALID,0,VALID,98.9003,VALID,0.0679233,VALID,19.2389,VALID,151,VALID,0.912016,
2008-03-13, 02:21:00,VALID,915.344,VALID,0,VALID,98.9588,VALID,0.0509425,VALID,19.2389,VALID,157,VALID,0.96147,
2008-03-13, 02:22:00,VALID,915.332,VALID,0,VALID,99.0084,VALID,0.0849042,VALID,19.2167,VALID,155,VALID,1.23581,
2008-03-13, 02:23:00,VALID,915.326,VALID,0,VALID,99.0631,VALID,0.0339617,VALID,19.2197,VALID,163,VALID,1.17351,
2008-03-13, 02:24:00,VALID,915.315,VALID,0,VALID,99.1254,VALID,0.0679233,VALID,19.2065,VALID,176,VALID,1.02198,
2008-03-13, 02:25:00,VALID,915.32,VALID,0,VALID,99.1635,VALID,0.0509425,VALID,19.2095,VALID,179,VALID,0.199591,
2008-03-13, 02:26:00,VALID,915.315,VALID,0,VALID,99.2208,VALID,0.101885,VALID,19.1998,VALID,161,VALID,0.994727,
2008-03-13, 02:27:00,VALID,915.309,VALID,0,VALID,99.2678,VALID,0.0679233,VALID,19.19,VALID,177,VALID,1.08803,
2008-03-13, 02:28:00,VALID,915.323,VALID,0,VALID,99.3441,VALID,-0.0679233,VALID,19.1822,VALID,167,VALID,0.698864,
2008-03-13, 02:29:00,VALID,915.319,VALID,0,VALID,99.3899,VALID,-0.0509425,VALID,19.1753,VALID,170,VALID,0.893043,
2008-03-13, 02:30:00,VALID,915.315,VALID,0,VALID,99.4268,VALID,-0.0339617,VALID,19.1593,VALID,168,VALID,0.437682,
2008-03-13, 02:31:00,VALID,915.32,VALID,0,VALID,99.4814,VALID,0,VALID,19.153,VALID,134,VALID,0.629278,
2008-03-13, 02:32:00,VALID,915.309,VALID,0,VALID,99.5387,VALID,-0.0509425,VALID,19.1496,VALID,159,VALID,0.996951,
2008-03-13, 02:33:00,VALID,915.296,VALID,0,VALID,99.5844,VALID,0,VALID,19.1396,VALID,165,VALID,0.90189,
2008-03-13, 02:34:00,VALID,915.293,VALID,0,VALID,99.6595,VALID,-0.0339617,VALID,19.1331,VALID,130,VALID,1.40146,
2008-03-13, 02:35:00,VALID,915.29,VALID,0,VALID,99.7192,VALID,-0.0169808,VALID,19.1269,VALID,134,VALID,1.13002,
2008-03-13, 02:36:00,VALID,915.255,VALID,0,VALID,99.8057,VALID,-0.0339617,VALID,19.1171,VALID,141,VALID,0.839286,
2008-03-13, 02:37:00,VALID,915.255,VALID,0,VALID,99.8947,VALID,-0.0339617,VALID,19.1009,VALID,139,VALID,0.84282,
2008-03-13, 02:38:00,VALID,915.234,VALID,0,VALID,99.9791,VALID,-0.0509425,VALID,19.0847,VALID,137,VALID,1.16074,
2008-03-13, 02:39:00,VALID,915.213,VALID,0,VALID,100,VALID,0,VALID,19.0685,VALID,148,VALID,1.08575,
2008-03-13, 02:40:00,VALID,915.193,VALID,0,VALID,100,VALID,-0.0169808,VALID,19.0393,VALID,146,VALID,1.10792,
2008-03-13, 02:41:00,VALID,915.178,VALID,0,VALID,100,VALID,-0.0339617,VALID,19.0228,VALID,143,VALID,1.25195,
2008-03-13, 02:42:00,VALID,915.154,VALID,0,VALID,100,VALID,-0.0169808,VALID,18.9939,VALID,147,VALID,0.70434,
2008-03-13, 02:43:00,VALID,915.13,VALID,0,VALID,100,VALID,-0.0679233,VALID,18.9809,VALID,158,VALID,1.23366,
2008-03-13, 02:44:00,VALID,915.122,VALID,0,VALID,100,VALID,-0.0339617,VALID,18.9744,VALID,149,VALID,1.43125,
2008-03-13, 02:45:00,VALID,915.093,VALID,0,VALID,100,VALID,0,VALID,18.9707,VALID,140,VALID,1.44219,
2008-03-13, 02:46:00,VALID,915.095,VALID,0,VALID,100,VALID,-0.0339617,VALID,18.9806,VALID,143,VALID,1.64971,
2008-03-13, 02:47:00,VALID,915.092,VALID,0,VALID,100,VALID,-0.0339617,VALID,18.9804,VALID,138,VALID,1.56668,
2008-03-13, 02:48:00,VALID,915.072,VALID,0,VALID,100,VALID,-0.0509425,VALID,18.9939,VALID,128,VALID,1.1457,
2008-03-13, 02:49:00,VALID,915.067,VALID,0,VALID,100,VALID,-0.0169808,VALID,18.9906,VALID,131,VALID,1.87845,
2008-03-13, 02:50:00,VALID,915.061,VALID,0,VALID,100,VALID,0,VALID,18.9742,VALID,141,VALID,2.29043,
2008-03-13, 02:51:00,VALID,915.051,VALID,0,VALID,100,VALID,-0.0339617,VALID,18.9714,VALID,143,VALID,1.79403,
2008-03-13, 02:52:00,VALID,915.047,VALID,0,VALID,100,VALID,-0.0849042,VALID,18.9679,VALID,152,VALID,1.49498,
2008-03-13, 02:53:00,VALID,915.033,VALID,0,VALID,100,VALID,-0.0509425,VALID,18.9909,VALID,143,VALID,2.18954,
2008-03-13, 02:54:00,VALID,915.043,VALID,0,VALID,100,VALID,-0.0339617,VALID,19.0231,VALID,144,VALID,2.35528,
2008-03-13, 02:55:00,VALID,915.053,VALID,0,VALID,100,VALID,-0.0169808,VALID,19.0555,VALID,142,VALID,1.59141,
2008-03-13, 02:56:00,VALID,915.051,VALID,0,VALID,100,VALID,-0.0509425,VALID,19.0817,VALID,149,VALID,2.0442,
2008-03-13, 02:57:00,VALID,915.057,VALID,0,VALID,99.9565,VALID,-0.0509425,VALID,19.0977,VALID,147,VALID,1.95522,
2008-03-13, 02:58:00,VALID,915.067,VALID,0,VALID,99.7167,VALID,-0.0339617,VALID,19.1333,VALID,145,VALID,2.60625,
2008-03-13, 02:59:00,VALID,915.083,VALID,0,VALID,99.3924,VALID,0,VALID,19.1818,VALID,129,VALID,1.82088,
2008-03-13, 03:00:00,VALID,915.088,VALID,0,VALID,99.1699,VALID,-0.0339617,VALID,19.2112,VALID,128,VALID,1.54972,
2008-03-13, 03:01:00,VALID,915.079,VALID,0,VALID,99.0605,VALID,-0.0339617,VALID,19.2242,VALID,140,VALID,1.55523,
2008-03-13, 03:02:00,VALID,915.091,VALID,0,VALID,98.9283,VALID,-0.0169808,VALID,19.2307,VALID,147,VALID,1.52637,
2008-03-13, 03:03:00,VALID,915.106,VALID,0,VALID,98.9079,VALID,-0.0509425,VALID,19.2504,VALID,139,VALID,1.25684,
2008-03-13, 03:04:00,VALID,915.12,VALID,0,VALID,98.8558,VALID,-0.0509425,VALID,19.2569,VALID,147,VALID,1.70103,
2008-03-13, 03:05:00,VALID,915.147,VALID,0,VALID,98.7833,VALID,-0.0509425,VALID,19.2696,VALID,133,VALID,1.68679,
2008-03-13, 03:06:00,VALID,915.141,VALID,0,VALID,98.7452,VALID,-0.0679233,VALID,19.2761,VALID,128,VALID,1.44066,
2008-03-13, 03:07:00,VALID,915.143,VALID,0,VALID,98.7337,VALID,-0.0169808,VALID,19.2923,VALID,150,VALID,2.36094,
2008-03-13, 03:08:00,VALID,915.117,VALID,0,VALID,98.5557,VALID,-0.0339617,VALID,19.334,VALID,156,VALID,2.59551,
2008-03-13, 03:09:00,VALID,915.127,VALID,0,VALID,98.2772,VALID,-0.0339617,VALID,19.3829,VALID,150,VALID,2.38049,
2008-03-13, 03:10:00,VALID,915.133,VALID,0,VALID,98.0153,VALID,-0.0169808,VALID,19.4283,VALID,138,VALID,1.92569,
2008-03-13, 03:11:00,VALID,915.125,VALID,0,VALID,97.8551,VALID,-0.0339617,VALID,19.4445,VALID,124,VALID,1.38681,
2008-03-13, 03:12:00,VALID,915.123,VALID,0,VALID,97.8233,VALID,-0.0169808,VALID,19.4445,VALID,115,VALID,1.22904,
2008-03-13, 03:13:00,VALID,915.121,VALID,0,VALID,97.8907,VALID,-0.135847,VALID,19.4263,VALID,135,VALID,1.62954,
2008-03-13, 03:14:00,VALID,915.113,VALID,0,VALID,97.9695,VALID,-0.135847,VALID,19.4071,VALID,124,VALID,1.99962,
2008-03-13, 03:15:00,VALID,915.128,VALID,0,VALID,98.0318,VALID,-0.101885,VALID,19.4131,VALID,119,VALID,2.32122,
2008-03-13, 03:16:00,VALID,915.13,VALID,0,VALID,97.9631,VALID,-0.118866,VALID,19.443,VALID,128,VALID,2.39205,
2008-03-13, 03:17:00,VALID,915.128,VALID,0,VALID,97.8525,VALID,-0.118866,VALID,19.456,VALID,142,VALID,1.76461,
2008-03-13, 03:18:00,VALID,915.119,VALID,0,VALID,97.7152,VALID,-0.118866,VALID,19.4752,VALID,132,VALID,2.01842,
2008-03-13, 03:19:00,VALID,915.131,VALID,0,VALID,97.6592,VALID,-0.118866,VALID,19.4852,VALID,129,VALID,1.46555,
2008-03-13, 03:20:00,VALID,915.125,VALID,0,VALID,97.5664,VALID,-0.152827,VALID,19.4981,VALID,137,VALID,2.38932,
2008-03-13, 03:21:00,VALID,915.108,VALID,0,VALID,97.4418,VALID,-0.101885,VALID,19.5273,VALID,148,VALID,1.97425,
2008-03-13, 03:22:00,VALID,915.101,VALID,0,VALID,97.4202,VALID,-0.152827,VALID,19.5273,VALID,115,VALID,2.22294,
2008-03-13, 03:23:00,VALID,915.108,VALID,0,VALID,97.3617,VALID,-0.152827,VALID,19.5468,VALID,122,VALID,1.02634,
2008-03-13, 03:24:00,VALID,915.105,VALID,0,VALID,97.307,VALID,-0.152827,VALID,19.5595,VALID,141,VALID,2.32148,
2008-03-13, 03:25:00,VALID,915.122,VALID,0,VALID,97.2638,VALID,-0.152827,VALID,19.5663,VALID,118,VALID,1.63299,
2008-03-13, 03:26:00,VALID,915.119,VALID,0,VALID,97.2116,VALID,-0.152827,VALID,19.5793,VALID,142,VALID,2.75476,
2008-03-13, 03:27:00,VALID,915.13,VALID,0,VALID,97.1404,VALID,-0.169808,VALID,19.5857,VALID,127,VALID,1.44052,
2008-03-13, 03:28:00,VALID,915.146,VALID,0,VALID,97.1455,VALID,0.0169808,VALID,19.5798,VALID,117,VALID,1.07148,
2008-03-13, 03:29:00,VALID,915.15,VALID,0,VALID,97.2396,VALID,0.0169808,VALID,19.5735,VALID,121,VALID,1.65644,
2008-03-13, 03:30:00,VALID,915.139,VALID,0,VALID,97.3795,VALID,0,VALID,19.5541,VALID,126,VALID,1.6849,
2008-03-13, 03:31:00,VALID,915.126,VALID,0,VALID,97.5041,VALID,0.0169808,VALID,19.5379,VALID,130,VALID,2.21391,
2008-03-13, 03:32:00,VALID,915.117,VALID,0,VALID,97.5511,VALID,0,VALID,19.5181,VALID,147,VALID,2.48692,
2008-03-13, 03:33:00,VALID,915.121,VALID,0,VALID,97.5829,VALID,0,VALID,19.5181,VALID,130,VALID,2.04179,
2008-03-13, 03:34:00,VALID,915.106,VALID,0,VALID,97.6402,VALID,0.0169808,VALID,19.5149,VALID,142,VALID,2.21777,